Estación de Morza Norte
Ultimos registro cada 15 minutos 77
| N° | Estación | Fecha / Hora | Temperatura | Humedad | Lluvia | Velocidad | Dirección | Radiación | Presion |
| 77 | Morza Norte | 05-05-2026 19:00 | 14,1 | 64 | 0 | 0 | 288 | 0 | 1015,5 |
| 76 | Morza Norte | 05-05-2026 18:45 | 14,1 | 64 | 0 | 0 | 288 | 0 | 1015,5 |
| 75 | Morza Norte | 05-05-2026 18:30 | 14,3 | 99 | 0 | 0 | 185 | 0 | 1015,5 |
| 74 | Morza Norte | 05-05-2026 18:15 | 14,7 | 63 | 0 | 0 | 142 | 0 | 1015,4 |
| 73 | Morza Norte | 05-05-2026 18:00 | 14,9 | 61 | 0 | 0 | 143 | 0 | 1015 |
| 72 | Morza Norte | 05-05-2026 17:45 | 15,3 | 62 | 0 | 0 | 233 | 0 | 1015 |
| 71 | Morza Norte | 05-05-2026 17:30 | 15,7 | 99 | 0 | 0 | 233 | 7 | 1014,9 |
| 70 | Morza Norte | 05-05-2026 17:15 | 16,3 | 59 | 0 | 0 | 233 | 21 | 1014,7 |
| 69 | Morza Norte | 05-05-2026 17:00 | 16,7 | 57 | 0 | 0 | 233 | 25 | 1014,6 |
| 68 | Morza Norte | 05-05-2026 16:45 | 16,9 | 55 | 0 | 0 | 233 | 39 | 1014,5 |
| 67 | Morza Norte | 05-05-2026 16:30 | 17,4 | 99 | 0 | 0 | 233 | 37 | 1014,5 |
| 66 | Morza Norte | 05-05-2026 16:15 | 17,7 | 53 | 0 | 0 | 233 | 53 | 1014,3 |
| 65 | Morza Norte | 05-05-2026 16:00 | 17,9 | 50 | 0 | 0 | 233 | 70 | 1014,1 |
| 64 | Morza Norte | 05-05-2026 15:45 | 18,3 | 49 | 0 | 0 | 287 | 63 | 1014,4 |
| 63 | Morza Norte | 05-05-2026 15:30 | 18,5 | 99 | 0 | 0 | 294 | 100 | 1014,1 |
| 62 | Morza Norte | 05-05-2026 15:15 | 18,4 | 50 | 0 | 0 | 306 | 142 | 1014,2 |
| 61 | Morza Norte | 05-05-2026 15:00 | 18,3 | 50 | 0 | 0 | 273 | 134 | 1014,1 |
| 60 | Morza Norte | 05-05-2026 14:45 | 18,3 | 49 | 0 | 0 | 282 | 128 | 1014,3 |
| 59 | Morza Norte | 05-05-2026 14:30 | 18,3 | 99 | 0 | 0 | 12 | 118 | 1013,8 |
| 58 | Morza Norte | 05-05-2026 14:15 | 18,4 | 47 | 0 | 0 | 332 | 176 | 1014,1 |
| 57 | Morza Norte | 05-05-2026 14:00 | 18,2 | 46 | 0 | 0 | 282 | 171 | 1014,2 |
| 56 | Morza Norte | 05-05-2026 13:45 | 18,1 | 48 | 0 | 0 | 336 | 156 | 1013,8 |
| 55 | Morza Norte | 05-05-2026 13:30 | 18,1 | 48 | 0 | 0 | 336 | 134 | 1014,1 |
| 54 | Morza Norte | 05-05-2026 13:15 | 17,8 | 49 | 0 | 0 | 334 | 171 | 1014 |
| 53 | Morza Norte | 05-05-2026 13:00 | 17,2 | 53 | 0 | 0 | 296 | 209 | 1014,2 |
| 52 | Morza Norte | 05-05-2026 12:45 | 17,2 | 53 | 0 | 0 | 296 | 209 | 1014,2 |
| 51 | Morza Norte | 05-05-2026 12:30 | 16,9 | 54 | 0 | 0 | 297 | 183 | 1013,9 |
| 50 | Morza Norte | 05-05-2026 12:15 | 16,8 | 53 | 0 | 0 | 275 | 167 | 1013,9 |
| 49 | Morza Norte | 05-05-2026 12:00 | 16,8 | 54 | 0 | 0 | 240 | 179 | 1014,1 |
| 48 | Morza Norte | 05-05-2026 11:45 | 16,6 | 53 | 0 | 0 | 283 | 253 | 1014,1 |
| 47 | Morza Norte | 05-05-2026 11:30 | 16,5 | 99 | 0 | 0 | 285 | 186 | 1014,4 |
| 46 | Morza Norte | 05-05-2026 11:15 | 16,1 | 55 | 0 | 0 | 318 | 207 | 1014,5 |
| 45 | Morza Norte | 05-05-2026 11:00 | 15,6 | 54 | 0 | 0 | 33 | 165 | 1014,5 |
| 44 | Morza Norte | 05-05-2026 10:45 | 15,1 | 99 | 0 | 0 | 62 | 162 | 1014,4 |
| 43 | Morza Norte | 05-05-2026 10:30 | 14,8 | 56 | 0 | 0 | 48 | 132 | 1014,7 |
| 42 | Morza Norte | 05-05-2026 10:15 | 14,4 | 58 | 0 | 0 | 77 | 137 | 1015,1 |
| 41 | Morza Norte | 05-05-2026 10:00 | 13,4 | 59 | 0 | 0 | 322 | 84 | 1015,5 |
| 40 | Morza Norte | 05-05-2026 09:45 | 13,4 | 59 | 0 | 0 | 322 | 84 | 1015,5 |
| 39 | Morza Norte | 05-05-2026 09:30 | 12,9 | 99 | 0 | 0 | 302 | 98 | 1014,7 |
| 38 | Morza Norte | 05-05-2026 09:15 | 12,4 | 60 | 0 | 0 | 256 | 63 | 1014,2 |
| 37 | Morza Norte | 05-05-2026 09:00 | 11,9 | 63 | 0 | 0 | 137 | 63 | 1013,7 |
| 36 | Morza Norte | 05-05-2026 08:45 | 11,5 | 99 | 0 | 0 | 136 | 58 | 1013,3 |
| 35 | Morza Norte | 05-05-2026 08:30 | 11,1 | 63 | 0 | 0 | 190 | 40 | 1013,9 |
| 34 | Morza Norte | 05-05-2026 08:15 | 10,6 | 64 | 0 | 0 | 291 | 28 | 1013,8 |
| 33 | Morza Norte | 05-05-2026 08:00 | 9,5 | 66 | 0 | 0 | 51 | 12 | 1014,8 |
| 32 | Morza Norte | 05-05-2026 07:45 | 9,5 | 66 | 0 | 0 | 51 | 12 | 1014,8 |
| 31 | Morza Norte | 05-05-2026 07:30 | 9,3 | 66 | 0 | 0 | 145 | 0 | 1015,4 |
| 30 | Morza Norte | 05-05-2026 07:15 | 9,3 | 66 | 0 | 0,9 | 169 | 0 | 1015,9 |
| 29 | Morza Norte | 05-05-2026 07:00 | 9,3 | 66 | 0 | 0 | 102 | 0 | 1015,9 |
| 28 | Morza Norte | 05-05-2026 06:45 | 9,2 | 67 | 0 | 0 | 169 | 0 | 1016,4 |
| 27 | Morza Norte | 05-05-2026 06:30 | 9,1 | 99 | 0 | 0,4 | 282 | 0 | 1016,8 |
| 26 | Morza Norte | 05-05-2026 06:15 | 8,8 | 67 | 0 | 0 | 300 | 0 | 1016,1 |
| 25 | Morza Norte | 05-05-2026 06:00 | 8,6 | 68 | 0 | 0 | 147 | 0 | 1016,5 |
| 24 | Morza Norte | 05-05-2026 05:45 | 8,6 | 68 | 0 | 0 | 146 | 0 | 1016,4 |
| 23 | Morza Norte | 05-05-2026 05:30 | 8,5 | 99 | 0 | 0 | 148 | 0 | 1016,3 |
| 22 | Morza Norte | 05-05-2026 05:15 | 8,4 | 67 | 0 | 0 | 148 | 0 | 1016,7 |
| 21 | Morza Norte | 05-05-2026 05:00 | 8,4 | 67 | 0 | 0 | 148 | 0 | 1016,2 |
| 20 | Morza Norte | 05-05-2026 04:45 | 8,4 | 67 | 0 | 0 | 149 | 0 | 1016,3 |
| 19 | Morza Norte | 05-05-2026 04:30 | 8,3 | 99 | 0 | 0 | 149 | 0 | 1015,7 |
| 18 | Morza Norte | 05-05-2026 04:15 | 8,2 | 68 | 0 | 0 | 149 | 0 | 1015,5 |
| 17 | Morza Norte | 05-05-2026 04:00 | 8,2 | 68 | 0 | 0 | 148 | 0 | 1015,5 |
| 16 | Morza Norte | 05-05-2026 03:45 | 8,2 | 68 | 0 | 0 | 148 | 0 | 1015,3 |
| 15 | Morza Norte | 05-05-2026 03:30 | 8,1 | 68 | 0 | 0 | 148 | 0 | 1015,6 |
| 14 | Morza Norte | 05-05-2026 03:15 | 8,1 | 68 | 0 | 0 | 148 | 0 | 1015,7 |
| 13 | Morza Norte | 05-05-2026 03:00 | 8,1 | 68 | 0 | 0 | 148 | 0 | 1015,7 |
| 12 | Morza Norte | 05-05-2026 02:45 | 8,2 | 68 | 0 | 0 | 148 | 0 | 1015,9 |
| 11 | Morza Norte | 05-05-2026 02:30 | 8,2 | 99 | 0 | 0 | 148 | 0 | 1015,9 |
| 10 | Morza Norte | 05-05-2026 02:15 | 8,2 | 68 | 0 | 0 | 148 | 0 | 1015,9 |
| 9 | Morza Norte | 05-05-2026 02:00 | 7,9 | 68 | 0 | 0 | 148 | 0 | 1016,2 |
| 8 | Morza Norte | 05-05-2026 01:45 | 7,4 | 67 | 0 | 0 | 148 | 0 | 1016,2 |
| 7 | Morza Norte | 05-05-2026 01:30 | 7,3 | 99 | 0 | 0 | 148 | 0 | 1016,5 |
| 6 | Morza Norte | 05-05-2026 01:15 | 6,9 | 66 | 0 | 0 | 148 | 0 | 1016,6 |
| 5 | Morza Norte | 05-05-2026 01:00 | 6,7 | 66 | 0 | 0 | 149 | 0 | 1016,4 |
| 4 | Morza Norte | 05-05-2026 00:45 | 6,8 | 66 | 0 | 0 | 149 | 0 | 1016,5 |
| 3 | Morza Norte | 05-05-2026 00:30 | 7,1 | 66 | 0 | 0 | 149 | 0 | 1016,5 |
| 2 | Morza Norte | 05-05-2026 00:15 | 7,7 | 65 | 0 | 0 | 149 | 0 | 1016,4 |
| 1 | Morza Norte | 05-05-2026 00:00 | 8,4 | 65 | 0 | 0 | 149 | 0 | 1016,5 |